| time (UTC) | temp C | wind direction | speed KPH | gust KPH | rain 1hr cm | rain 24hr cm | rain mn cm | humidity % | barometer mb |
| 20260510043009 | 23 | 117 | 1.6 | 1.6 | 0.00 | 0.00 | 0.00 | 87 | |
| 20260510040008 | 23 | 100 | 1.6 | 9.7 | 0.00 | 0.00 | 0.00 | 82 | |
| 20260510033006 | 24 | 99 | 0.0 | 3.2 | 0.00 | 0.00 | 0.00 | 80 | |
| 20260510030004 | 25 | 89 | 11.3 | 14.5 | 0.00 | 0.00 | 0.00 | 81 | |
| 20260510023003 | 25 | 123 | 0.0 | 1.6 | 0.00 | 0.00 | 0.00 | 77 | |
| 20260510015958 | 26 | 131 | 0.0 | 0.0 | 0.00 | 0.00 | 0.00 | 74 | |
| 20260510012952 | 27 | 124 | 0.0 | 1.6 | 0.00 | 0.00 | 0.00 | 74 | |
| 20260510005951 | 29 | 121 | 0.0 | 0.0 | 0.00 | 0.00 | 0.00 | 77 | |
| 20260510002948 | 30 | 133 | 1.6 | 1.6 | 0.00 | 0.00 | 0.00 | 75 | |
| 20260509235946 | 30 | 132 | 0.0 | 3.2 | 0.00 | 0.00 | 0.00 | 75 | |
| 20260509232944 | 29 | 132 | 0.0 | 0.0 | 0.00 | 0.00 | 0.00 | 77 | |
| 20260509225943 | 30 | 149 | 0.0 | 0.0 | 0.00 | 0.00 | 0.00 | 76 | |
| 20260509222940 | 31 | 146 | 0.0 | 1.6 | 0.00 | 0.00 | 0.00 | 66 | |
| 20260509215939 | 31 | 99 | 1.6 | 3.2 | 0.00 | 0.00 | 0.00 | 66 | |
| 20260509212937 | 34 | 167 | 1.6 | 1.6 | 0.00 | 0.00 | 0.00 | 58 | |
| 20260509205932 | 33 | 150 | 3.2 | 4.8 | 0.00 | 0.00 | 0.00 | 61 | |
| 20260509202927 | 31 | 162 | 0.0 | 1.6 | 0.00 | 0.00 | 0.00 | 67 | |
| 20260509195925 | 32 | 93 | 1.6 | 1.6 | 0.00 | 0.00 | 0.00 | 67 | |
| 20260509192921 | 32 | 124 | 1.6 | 3.2 | 0.00 | 0.00 | 0.00 | 66 | |
| 20260509185917 | 32 | 92 | 1.6 | 4.8 | 0.00 | 0.00 | 0.00 | 67 | |
| 20260509182914 | 32 | 101 | 1.6 | 3.2 | 0.00 | 0.00 | 0.00 | 68 | |
| 20260509175912 | 31 | 180 | 4.8 | 8.0 | 0.00 | 0.00 | 0.00 | 71 | |
| 20260509172912 | 30 | 137 | 1.6 | 1.6 | 0.00 | 0.00 | 0.00 | 74 | |
| 20260509165906 | 30 | 211 | 1.6 | 1.6 | 0.00 | 0.00 | 0.00 | 77 | |
| 20260509162903 | 28 | 117 | 0.0 | 1.6 | 0.00 | 0.00 | 0.00 | 83 | |
| 20260509155858 | 28 | 124 | 0.0 | 3.2 | 0.00 | 0.00 | 0.00 | 85 | |
| 20260509152856 | 26 | 131 | 1.6 | 1.6 | 0.00 | 0.00 | 0.00 | 90 | |
| 20260509145850 | 26 | 184 | 0.0 | 1.6 | 0.00 | 0.00 | 0.00 | 93 | |
| 20260509142845 | 25 | 137 | 0.0 | 0.0 | 0.00 | 0.00 | 0.00 | 97 | |
| 20260509135843 | 24 | 120 | 0.0 | 0.0 | 0.00 | 0.00 | 0.00 | 99 | |
| 20260509132839 | 23 | 133 | 0.0 | 0.0 | 0.00 | 0.00 | 0.00 | 99 | |
| 20260509125836 | 23 | 104 | 0.0 | 1.6 | 0.00 | 0.00 | 0.00 | 99 | |
| 20260509122834 | 23 | 137 | 0.0 | 0.0 | 0.00 | 0.00 | 0.00 | 99 | |
| 20260509115831 | 23 | 139 | 0.0 | 0.0 | 0.00 | 0.00 | 0.00 | 99 | |
| 20260509112828 | 22 | 141 | 0.0 | 0.0 | 0.00 | 0.00 | 0.00 | 99 | |
| 20260509105828 | 22 | 131 | 0.0 | 0.0 | 0.00 | 0.00 | 0.00 | 99 | |
| 20260509102825 | 22 | 60 | 0.0 | 4.8 | 0.00 | 0.00 | 0.00 | 99 | |
| 20260509095823 | 22 | 103 | 1.6 | 1.6 | 0.00 | 0.00 | 0.00 | 99 | |
| 20260509092819 | 22 | 110 | 0.0 | 1.6 | 0.00 | 0.00 | 0.00 | 99 | |
| 20260509085814 | 22 | 116 | 0.0 | 0.0 | 0.00 | 0.00 | 0.00 | 99 | |
| 20260509082814 | 22 | 115 | 0.0 | 0.0 | 0.00 | 0.00 | 0.00 | 99 | |
| 20260509075810 | 22 | 118 | 0.0 | 0.0 | 0.00 | 0.00 | 0.00 | 99 | |
| 20260509072808 | 22 | 120 | 0.0 | 1.6 | 0.00 | 0.00 | 0.00 | 99 | |
| 20260509065805 | 22 | 166 | 3.2 | 4.8 | 0.00 | 0.00 | 0.00 | 99 | |
| 20260509062803 | 22 | 108 | 0.0 | 1.6 | 0.00 | 0.00 | 0.00 | 99 | |
| 20260509055802 | 22 | 118 | 0.0 | 4.8 | 0.00 | 0.00 | 0.00 | 99 | |
| 20260509052802 | 22 | 121 | 0.0 | 1.6 | 0.00 | 0.00 | 0.00 | 99 | |
| 20260509045757 | 22 | 126 | 1.6 | 1.6 | 0.00 | 0.00 | 0.00 | 99 |